Weather History for Oceana NAS, VA

Change the Weather History Date:

Saturday, September 7, 2013

  Actual Average Record
Temperature  
Mean Temperature 67 °F -  
Max Temperature 78 °F 79 °F 91 °F (1998)
Min Temperature 57 °F 65 °F 57 °F (2013)
Cooling Degree Days 2    
Growing Degree Days 17 (Base 50)    
Moisture  
Dew Point 56 °F    
Average Humidity 68    
Maximum Humidity 89    
Minimum Humidity 45    
Precipitation  
Precipitation 0.00 in - - ()
Sea Level Pressure  
Sea Level Pressure 30.07 in    
Wind  
Wind Speed 2 mph (SE)    
Max Wind Speed 10 mph    
Max Gust Speed -    
Visibility 10 miles    
Events      
Averages and records for this station are not official NWS values.
T = Trace of Precipitation, MM = Missing Value Source: NWS Daily Summary

Daily Weather History Graph

Daily Weather History Graph

Search for Another Location

Airport:

Trip Planner

Search our weather history database for the weather conditions in past years. The results will help you decide how hot, cold, wet, or windy it might be!

Date:

Astronomy

Sep. 07, 2013 Rise Set
Actual Time 6:40 AM EDT 7:23 PM EDT
Civil Twilight 6:13 AM EDT 7:49 PM EDT
Nautical Twilight 5:42 AM EDT 8:20 PM EDT
Astronomical Twilight 5:11 AM EDT 8:52 PM EDT
Moon 8:47 AM EDT (9/7) 8:25 PM EDT (9/7)
Length of Visible Light 13h 35m
Length of Day
12h 43m
Waxing Crescent, 5% of the Moon is Illuminated
Sep 7
Waxing Crescent
Sep 12
First Quarter
Sep 19
Full
Sep 26
Last Quarter
Oct 4
New

Hourly Weather History & Observations

Time (EDT) Temp. Dew Point Humidity Pressure Visibility Wind Dir Wind Speed Gust Speed Precip Events Conditions
12:56 AM 61.0 °F 55.9 °F 83% 30.14 in 10.0 mi Calm Calm - N/A   Partly Cloudy
1:56 AM 60.1 °F 55.0 °F 83% 30.12 in 10.0 mi Calm Calm - N/A   Partly Cloudy
2:56 AM 61.0 °F 55.0 °F 81% 30.12 in 10.0 mi Calm Calm - N/A   Partly Cloudy
3:56 AM 59.0 °F 54.0 °F 83% 30.11 in 10.0 mi Calm Calm - N/A   Partly Cloudy
4:56 AM 60.1 °F 55.0 °F 83% 30.11 in 10.0 mi Calm Calm - N/A   Scattered Clouds
5:56 AM 57.9 °F 54.0 °F 87% 30.11 in 10.0 mi Calm Calm - N/A   Partly Cloudy
6:56 AM 57.0 °F 54.0 °F 89% 30.12 in 10.0 mi Calm Calm - N/A   Mostly Cloudy
7:56 AM 63.0 °F 59.0 °F 87% 30.13 in 10.0 mi Calm Calm - N/A   Mostly Cloudy
8:56 AM 70.0 °F 61.0 °F 73% 30.12 in 10.0 mi WSW 3.5 mph - N/A   Mostly Cloudy
9:56 AM 73.9 °F 55.0 °F 52% 30.12 in 10.0 mi Calm Calm - N/A   Mostly Cloudy
10:56 AM 73.0 °F 55.0 °F 53% 30.12 in 10.0 mi Calm Calm - N/A   Mostly Cloudy
11:56 AM 77.0 °F 54.0 °F 45% 30.11 in 10.0 mi Calm Calm - N/A   Mostly Cloudy
12:56 PM 75.0 °F 55.9 °F 51% 30.08 in 10.0 mi ESE 5.8 mph - N/A   Mostly Cloudy
1:56 PM 77.0 °F 57.0 °F 50% 30.07 in 10.0 mi East 8.1 mph - N/A   Scattered Clouds
2:56 PM 75.9 °F 57.0 °F 52% 30.05 in 10.0 mi ENE 10.4 mph - N/A   Scattered Clouds
3:56 PM 75.0 °F 57.0 °F 53% 30.03 in 10.0 mi ESE 6.9 mph - N/A   Scattered Clouds
4:56 PM 75.0 °F 57.0 °F 53% 30.01 in 10.0 mi ESE 8.1 mph - N/A   Scattered Clouds
5:56 PM 73.9 °F 57.0 °F 55% 30.01 in 10.0 mi ESE 10.4 mph - N/A   Mostly Cloudy
6:56 PM 72.0 °F 57.0 °F 59% 30.00 in 10.0 mi SSE 6.9 mph - N/A   Mostly Cloudy
7:56 PM 69.1 °F 57.0 °F 65% 30.01 in 10.0 mi SSE 4.6 mph - N/A   Mostly Cloudy
8:56 PM 68.0 °F 57.9 °F 70% 30.01 in 10.0 mi South 3.5 mph - N/A   Mostly Cloudy
9:56 PM 66.9 °F 57.9 °F 73% 30.01 in 10.0 mi SSE 5.8 mph - N/A   Scattered Clouds
10:56 PM 66.9 °F 57.9 °F 73% 30.00 in 10.0 mi South 4.6 mph - N/A   Partly Cloudy
11:56 PM 66.9 °F 59.0 °F 76% 29.98 in 10.0 mi South 4.6 mph - N/A   Partly Cloudy